Location: Staunton
(38.1490°N, 79.0720°W)
Time: 23:18:19
(UTC-05:00)

ISS - Pass Details

Date: 12 November 2018
Orbit: 402 x 408 km, 51.6° (Epoch: 17 November)

Event Time Altitude Azimuth Distance (km) Brightness Sun altitude
Exits shadow 06:02:19 13° 315° (NW) 1,307 -1.8 -10.5°
Maximum altitude 06:05:12 68° 38° (NE) 438 -3.6 -9.9°
Drops below altitude 10° 06:08:27 10° 122° (ESE) 1,456 0.4 -9.3°
Sets 06:10:32 0° 125° (SE) 2,314 1.6 -8.9°
